Location: D�pe
(52.6057°N, 8.1808°E)
Time: 01:17:30
(UTC+00:00)

SKYMED 2 - Pass Details

Date: 29 October 2020
Orbit: 621 x 623 km, 97.9° (Epoch: 23 November)

Event Time Altitude Azimuth Distance (km) Brightness Sun altitude
Rises 17:47:52 0° 14° (NNE) 2,918 6.9 -16.5°
Reaches altitude 10° 17:50:04 10° 14° (NNE) 2,006 6.0 -16.8°
Maximum altitude 17:54:27 90° 69° (ENE) 630 3.5 -17.5°
Drops below altitude 10° 17:58:47 10° 196° (SSW) 1,989 6.3 -18.1°
Sets 18:00:58 0° 196° (SSW) 2,890 7.2 -18.5°
